Location: İstanbul
(41.0082°N, 28.9784°E)
Time: 19:04:33
(UTC+03:00)

Envisat - Visible Passes

Search period start: 19 April 2024 00:00
Search period end: 29 April 2024 00:00
Orbit: 762 x 764 km, 98.3° (Epoch: 19 April)

Date Brightness Start Highest point End Pass type
(mag) Time Alt. Az. Time Alt. Az. Time Alt. Az.
19 Apr 3.2 04:17:50 10° NNE 04:22:54 69° E 04:26:03 23° S visible
20 Apr 4.6 03:41:00 10° NE 03:45:27 30° E 03:48:23 18° SE visible
20 Apr 3.9 05:19:55 10° N 05:24:22 31° WNW 05:28:33 11° SW visible
21 Apr 5.5 03:05:22 10° ENE 03:07:46 13° E 03:10:10 10° ESE visible
21 Apr 3.0 04:42:10 10° N 04:47:13 70° WNW 04:50:53 19° SSW visible
22 Apr 3.6 04:04:56 10° NNE 04:09:53 52° E 04:13:13 20° S visible
22 Apr 4.5 05:44:53 10° NNW 05:48:27 20° WNW 05:51:59 10° WSW visible
23 Apr 5.0 03:28:21 10° NE 03:32:21 23° E 03:35:32 13° SE visible
23 Apr 3.5 05:06:42 10° N 05:11:27 41° WNW 05:15:42 12° SW visible
24 Apr 2.9 04:29:08 10° NNE 04:34:15 89° ESE 04:38:02 18° SSW visible
25 Apr 4.1 03:52:05 10° NNE 03:56:50 39° E 04:00:20 17° SSE visible
25 Apr 4.2 05:31:30 10° NNW 05:35:34 25° WNW 05:39:39 10° WSW visible
26 Apr 5.3 03:15:53 10° NE 03:19:14 17° E 03:22:32 10° SE visible
26 Apr 3.2 04:53:33 10° N 04:58:30 54° WNW 05:02:49 13° SSW visible
27 Apr 3.2 04:16:09 10° NNE 04:21:13 68° ESE 04:25:08 17° S visible
28 Apr 4.6 03:39:18 10° NE 03:43:45 30° E 03:47:26 13° SSE visible
28 Apr 3.9 05:18:11 10° N 05:22:40 32° WNW 05:27:07 10° SW visible
